Terug naar catalogus

COSMOS 2251 DEB

ActiefLEO
NORAD 47051·DEBRIS·🇷🇺 Russia

Gelanceerd Jun 16, 1993 vanaf Plesetsk Cosmodrome

Loading…

Volgende Passages (komende 24 uur)

TLE

VersSource: Space-Track

Epoch: Sep 14, 2026, 05:51 UTC

1 47051U 93036BXF 26257.24411172  .00000994  00000-0  79613-3 0  9993
2 47051  74.0973  92.9523 0341784 141.9918 340.6720 13.67896745637047

Volg COSMOS 2251 DEB in realtime met AllMySat

Download on the App Store